Regional Weather Roundup
Issued by NWS

Home | Current Version | Previous Version | Graphics & Text | Print | Product List | Glossary On
Versions: 1 2 3 4 5 6 7 8 9 10 11 12 13 14 15 16 17 18 19 20 21 22 23 24 25 26 27 28
000
ASUS45 KBOI 221610
RWRID

IDAHO REGIONAL WEATHER ROUNDUP
NATIONAL WEATHER SERVICE BOISE ID
900 AM MST WED NOV 22 2017

NOTE: "FAIR" INDICATES FEW OR NO CLOUDS BELOW 12000 FEET
WITH NO SIGNIFICANT WEATHER AND/OR OBSTRUCTIONS TO VISIBILITY

IDZ012-014-221700-
SOUTHWEST IDAHO


CITY           SKY/WX    TMP DP  RH WIND       PRES   REMARKS
BOISE          MOCLDY    51  49  92 CALM      30.30R
CALDWELL       MOCLDY    47  47 100 CALM      30.31R FOG
MOUNTAIN HOME  MOSUNNY   50  50 100 E13       30.30R
$$

IDZ016-017-221700-
SOUTHCENTRAL IDAHO


CITY           SKY/WX    TMP DP  RH WIND       PRES   REMARKS
BURLEY         PTSUNNY   50  45  83 CALM      30.34R
JEROME         MOSUNNY   49  44  83 NE10      30.35R
TWIN FALLS     PTSUNNY   56  45  66 S14       30.34R
$$

IDZ019>023-221700-
SOUTHEAST IDAHO


CITY           SKY/WX    TMP DP  RH WIND       PRES   REMARKS
IDAHO FALLS    CLOUDY    39  38  96 N6        30.40R WCI  35
POCATELLO      CLOUDY    43  42  97 N6        30.38R
REXBURG        CLOUDY    40  39  97 E5        30.37S
$$

IDZ006-010-011-018-031-032-221700-
CENTRAL IDAHO MOUNTAINS


CITY           SKY/WX    TMP DP  RH WIND       PRES   REMARKS
MCCALL         LGT RAIN  41  41 100 N5        30.32S VSB 1/4
HAILEY         PTSUNNY   41  39  93 NW6       30.41R
STANLEY          N/A     38  36  92 CALM      30.42R
SALMON         LGT RAIN  37  37 100 CALM      30.35R
CHALLIS        CLOUDY    40  36  86 CALM      30.36R
$$

IDZ002-004-006-007-026-221700-
NORTHERN IDAHO


CITY           SKY/WX    TMP DP  RH WIND       PRES   REMARKS
LEWISTON       LGT RAIN  51  50  96 NE5       30.15S
LOWELL           N/A     42  41  96 N3        30.28S
COEUR D`ALENE  CLOUDY    48  48 100 NE3       30.13R
MULLAN PASS    LGT RAIN  42  41  96 SW8G22    30.19R VSB 1/4
$$




USA.gov is the U.S. government's official web portal to all federal, state and local government web resources and services.